Location: Chefe Valiua
(16.5342°S, 37.2214°E)
Time: 00:54:21
(UTC+00:00)

Cosmos 1812 Rocket - Pass Details

Date: 19 January 2021
Orbit: 604 x 633 km, 82.5° (Epoch: 07 March)

Event Time Altitude Azimuth Distance (km) Brightness Sun altitude
Exits shadow 17:07:36 - 11° (N) 2,287 6.1 -13.3°
Reaches altitude 10° 17:08:28 10° 14° (NNE) 1,949 5.7 -13.5°
Maximum altitude 17:12:36 47° 87° (E) 810 3.7 -14.4°
Drops below altitude 10° 17:16:46 10° 161° (SSE) 1,964 6.2 -15.3°
Sets 17:19:03 0° 166° (SSE) 2,874 7.2 -15.8°
